This is the latest recevied weather packets stored in our database for station/object JE6MIQ-13. If no packets are shown the sender has not sent any weather packets the latest 10 day(s).
| Time | Temp. | Humidity | Pressure | Rain* | Wind** | Luminosity | Snow |
|---|---|---|---|---|---|---|---|
| 1777789352 | 18.89° C | 82% | 1000.7 hPa | 2.03 mm | - | - | - |
| 1777788752 | 19.44° C | 82% | 1000.6 hPa | 4.32 mm | - | - | - |
| 1777788153 | 19.44° C | 82% | 1000.6 hPa | 6.35 mm | - | - | - |
| 1777787552 | 19.44° C | 82% | 1001.1 hPa | 7.37 mm | - | - | - |
| 1777786952 | 19.44° C | 82% | 1001.1 hPa | 7.37 mm | - | - | - |
| 1777786353 | 19.44° C | 83% | 1001 hPa | 9.65 mm | - | - | - |
| 1777785752 | 19.44° C | 83% | 1001 hPa | 9.65 mm | - | - | - |
| 1777785151 | 20° C | 83% | 1001 hPa | 8.38 mm | - | - | - |
| 1777784552 | 20° C | 83% | 1000.8 hPa | 6.35 mm | - | - | - |
| 1777783952 | 20° C | 83% | 1001 hPa | 5.33 mm | - | - | - |
| 1777783352 | 20.56° C | 82% | 1001 hPa | 4.32 mm | - | - | - |
| 1777782753 | 20° C | 82% | 1000.7 hPa | 3.05 mm | - | - | - |
| 1777782152 | 20° C | 82% | 1000.4 hPa | 2.03 mm | - | - | - |
| 1777781552 | 20° C | 82% | 1000.4 hPa | 1.02 mm | - | - | - |
| 1777780953 | 19.44° C | 82% | 1000.5 hPa | 1.02 mm | - | - | - |
| 1777780353 | 19.44° C | 82% | 1000.7 hPa | 2.03 mm | - | - | - |
| 1777779753 | 19.44° C | 82% | 1000.7 hPa | 2.03 mm | - | - | - |
| 1777779152 | 19.44° C | 82% | 1000.7 hPa | 3.3 mm | - | - | - |
| 1777778552 | 19.44° C | 81% | 1001 hPa | 5.33 mm | - | - | - |
| 1777777952 | 18.89° C | 81% | 1001 hPa | 5.33 mm | - | - | - |
| 1777777352 | 18.33° C | 81% | 1001.3 hPa | 6.35 mm | - | - | - |
| 1777776752 | 17.78° C | 80% | 1001.5 hPa | 5.33 mm | - | - | - |
| 1777776152 | 17.78° C | 79% | 1001.5 hPa | 6.35 mm | - | - | - |
| 1777775552 | 17.78° C | 79% | 1002 hPa | 4.06 mm | - | - | - |
| 1777774951 | 17.78° C | 78% | 1002.4 hPa | 2.03 mm | - | - | - |
* Rain latest hour (hover to see other rain measurements)
** Current wind speed in m/s (hover to see current wind gust speed)